[[{"header":{"parameterUnit":"m.s-1","parameterCategory":1,"la1":30.2991,"la2":30.254,"lo1":-89.0895,"lo2":-89.0444,"dy":0.0017,"dx":0.0017,"nx":28,"ny":28,"refTime":"2023-10-20T21:00:00:Z","depth":0,"parameterNumber":2,"parameterNumberName":"U-component_of_WINDS"},"data":[0,0,0,0,0,0,0,0,0,0,0,0,0,0,0,0,0,0,0,0,0,0,0,0,0,0,0,0,0,0,0,0,0,0,0,0,0,0,0,0,0,0,0,0,0,0,0,0,0,0,0,0,0,0,0,0,0,0,3.3207,3.3207,0,3.3213,3.3213,3.3213,3.3095,3.3092,3.3089,3.3086,3.3095,3.3098,3.3101,0,0,0,0,0,0,0,0,0,0,0,0,0,3.3097,3.3099,3.3207,3.3207,3.3207,3.3213,3.3213,3.3213,3.3096,3.3092,3.3088,3.3084,3.3094,3.3097,3.3101,0,0,0,0,0,0,0,0,0,0,0,0,0,3.3128,3.31,3.3207,3.3149,3.3144,3.3213,3.3213,3.3213,3.3097,3.3092,3.3087,3.3083,3.3092,3.3097,3.3102,3.3227,0,0,3.3117,3.3119,0,0,0,0,0,0,0,0,3.3126,3.3132,3.3157,3.3153,3.3148,3.3148,3.3177,3.3218,3.3098,3.3115,3.3086,3.308,3.3117,3.3119,3.3131,3.3228,3.3228,3.3117,3.312,3.3122,3.3123,0,0,0,0,0,0,0,3.3124,3.3131,3.3209,3.3158,3.3152,3.3124,3.3123,3.3185,3.3143,3.3113,3.3104,3.3107,3.3113,3.3127,3.313,3.3228,3.3117,3.3121,3.3124,3.3126,3.3431,3.3436,0,0,0,0,0,0,3.313,3.313,3.3209,3.3209,3.3125,3.313,3.3129,3.3153,3.3141,3.3135,3.3111,3.3101,3.3121,3.3125,3.313,3.3277,3.3122,3.3126,3.3129,3.3425,3.3432,3.3437,0,0,0,0,0,0,3.3128,3.3138,3.3209,3.3168,3.3174,3.3137,3.3165,3.3156,3.3169,3.314,3.3132,3.3132,3.3117,3.3123,3.3204,3.3276,3.3129,3.3133,3.3419,3.3427,3.3435,3.3573,0,0,0,0,0,0,3.3125,3.3138,3.3184,3.3169,3.3177,3.3282,3.3169,3.3159,3.3177,3.3165,3.3158,3.3152,3.3114,3.3198,3.3209,3.328,3.3137,3.3413,3.3423,3.3432,3.3562,3.3584,3.3604,0,0,0,0,0,3.3122,3.3223,3.3187,3.3197,3.3234,3.3287,3.3291,3.3244,3.3184,3.3231,3.3212,3.3152,3.3267,3.3207,3.3219,3.3292,3.3408,3.342,3.3431,3.3552,3.358,3.3603,0,0,0,0,0,0,3.3247,3.322,3.318,3.3279,3.3286,3.3267,3.3324,3.3275,3.33,3.3287,3.3229,3.3228,3.332,3.3314,3.3248,3.3414,3.3327,3.3341,3.3415,3.3441,3.3461,3.3461,3.3141,0,0,0,0,0,3.3286,3.333,3.3304,3.3394,3.34,3.3362,3.3383,3.3347,3.3352,3.3354,3.3342,3.335,3.3388,3.3414,3.3447,3.356,3.3558,3.3617,3.3638,3.3656,3.3669,3.3731,3.3757,3.3476,3.3476,3.3476,0,0,3.3367,3.3358,3.3389,3.342,3.342,3.3469,3.3365,3.342,3.3456,3.3363,3.3439,3.343,3.3436,3.3534,3.3577,3.3532,3.3747,3.3671,3.3685,3.3689,3.3746,3.3772,3.3796,3.3484,3.3482,3.3481,0,0,3.354,3.3537,3.3613,3.3616,3.362,3.3594,3.3613,3.3601,3.3592,3.3667,3.3599,3.3641,3.3707,3.3714,3.3727,3.3906,3.3852,3.3918,3.4028,3.4089,3.4111,3.4131,3.4196,3.422,3.3931,3.3932,3.3932,0,3.3641,3.371,3.3658,3.3718,3.3734,3.3653,3.373,3.3736,3.3751,3.3764,3.3714,3.3796,3.3794,3.3894,3.3938,3.395,3.3971,3.3918,3.4112,3.4131,3.4149,3.421,3.4235,3.394,3.3939,3.3938,3.3937,0,3.3835,3.3884,3.3945,3.3961,3.3984,3.4053,3.4012,3.4042,3.4005,3.3985,3.4064,3.4059,3.409,3.4111,3.4075,3.4207,3.418,3.4122,3.4033,3.4184,3.4241,3.4264,3.3952,3.3949,3.3946,3.3944,0,0,3.4086,3.4073,3.4097,3.4104,3.4102,3.414,3.4206,3.4236,3.4264,3.4277,3.4332,3.4391,3.4338,3.4353,3.4317,3.437,3.4514,3.4306,3.4305,3.4346,3.4662,3.4706,3.4734,3.4479,3.4483,3.4487,3.4662,0,3.4255,3.4365,3.4321,3.4436,3.4482,3.4407,3.4464,3.4471,3.4455,3.4493,3.4475,3.4518,3.4444,3.4453,3.4503,3.4486,3.4577,3.4473,3.4531,3.4534,3.4532,3.4763,3.481,3.4975,3.4684,3.4687,3.469,0,3.4466,3.4488,3.4608,3.4601,3.4618,3.4671,3.4696,3.4733,3.474,3.4724,3.4742,3.4695,3.4761,3.4672,3.4763,3.4693,3.4714,3.4711,3.4716,3.472,3.4621,3.4775,3.5027,3.5052,3.4724,3.4722,3.4719,0,3.4638,3.4698,3.4778,3.4787,3.478,3.4819,3.4818,3.482,3.4842,3.4865,3.4879,3.4909,3.4927,3.4952,3.4916,3.4854,3.5013,3.492,3.5003,3.5004,3.504,3.5038,3.53,3.5053,3.5053,3.5052,3.5052,0,3.4832,3.4908,3.4856,3.4905,3.4989,3.4939,3.5025,3.5015,3.5018,3.5066,3.5002,3.5048,3.4997,3.5039,3.5011,3.5091,3.5099,3.509,3.5082,3.5096,3.5097,3.5109,3.5097,3.5059,3.5057,3.5056,3.5055,0,3.5038,3.5006,3.5088,3.5076,3.5074,3.5137,3.5127,3.5173,3.5153,3.5214,3.5226,3.5195,3.5241,3.5207,3.5253,3.5234,3.5341,3.5316,3.5339,3.5332,3.5417,3.541,3.5696,3.5732,3.5462,3.5464,3.5467,0,3.5164,3.5221,3.5215,3.5242,3.5246,3.529,3.5312,3.5266,3.5292,3.5306,3.5351,3.5391,3.5421,3.5499,3.5482,3.5517,3.5493,3.5591,3.5498,3.5511,3.5496,3.5493,3.55,3.561,3.5613,3.5616,3.5618,0,3.5391,3.5373,3.5407,3.5437,3.5466,3.5487,3.5503,3.5529,3.5483,3.5516,3.5562,3.5586,3.5633,3.5675,3.5704,3.5704,3.5655,3.5647,3.5668,3.5684,3.5695,3.5692,3.5391,3.5641,3.5639,3.5637,3.5636,3.5635,3.5562,3.561,3.5614,3.5655,3.5662,3.568,3.5723,3.5709,3.5747,3.5781,3.5752,3.5808,3.5816,3.585,3.5857,3.5901,3.5861,3.5892,3.5899,3.5908,3.5921,3.5688,3.5906,3.5906,3.5905,3.5904,3.5904,0,3.5786,3.5786,3.5824,3.5849,3.5882,3.5832,3.5848,3.588,3.593,3.594,3.5972,3.6027,3.6068,3.6054,3.6091,3.613,3.6108,3.6141,3.6138,3.6139,3.5954,3.5932,3.6158,3.6158,3.6158,3.6158,3.6158,3.6158,3.5907,3.5986,3.5969,3.6053,3.6051,3.6106,3.612,3.6136,3.6145,3.6209,3.6242,3.6233,3.6236,3.6272,3.6309,3.6304,3.6321,3.6363,3.635,3.6177,3.6152,3.6128,3.6107,3.6367,3.6367,3.6532,3.6533,3.6534]},{"header":{"parameterUnit":"m.s-1","parameterCategory":1,"la1":30.2991,"la2":30.254,"lo1":-89.0895,"lo2":-89.0444,"dy":0.0017,"dx":0.0017,"nx":28,"ny":28,"refTime":"2023-10-20T21:00:00:Z","depth":0,"parameterNumber":3,"parameterNumberName":"V-component_of_WINDS"},"data":[0,0,0,0,0,0,0,0,0,0,0,0,0,0,0,0,0,0,0,0,0,0,0,0,0,0,0,0,0,0,0,0,0,0,0,0,0,0,0,0,0,0,0,0,0,0,0,0,0,0,0,0,0,0,0,0,0,0,0.4571,0.4572,0,0.4632,0.4633,0.4634,0.4642,0.4641,0.4641,0.464,0.4701,0.4703,0.4705,0,0,0,0,0,0,0,0,0,0,0,0,0,0.446,0.4462,0.4571,0.4572,0.4573,0.4632,0.4633,0.4634,0.4642,0.4641,0.464,0.464,0.47,0.4702,0.4705,0,0,0,0,0,0,0,0,0,0,0,0,0,0.4513,0.4463,0.4571,0.4584,0.4586,0.4632,0.4633,0.4634,0.4642,0.4641,0.464,0.464,0.4699,0.4702,0.4705,0.4742,0,0,0.4715,0.4716,0,0,0,0,0,0,0,0,0.451,0.4517,0.4581,0.4583,0.4585,0.4629,0.4616,0.467,0.4642,0.4621,0.464,0.4639,0.4677,0.4682,0.4695,0.4745,0.4748,0.4715,0.4717,0.4719,0.472,0,0,0,0,0,0,0,0.4506,0.4515,0.4595,0.4582,0.4585,0.4586,0.4593,0.4626,0.4653,0.4622,0.4623,0.463,0.4678,0.4692,0.4697,0.4748,0.4715,0.4718,0.472,0.4721,0.483,0.4831,0,0,0,0,0,0,0.4501,0.4512,0.4593,0.4597,0.4545,0.4589,0.4596,0.4616,0.4653,0.4657,0.4631,0.4631,0.4687,0.4693,0.4699,0.4744,0.4719,0.4722,0.4723,0.4829,0.483,0.4831,0,0,0,0,0,0,0.4498,0.4508,0.4591,0.4555,0.4565,0.4592,0.4613,0.4617,0.4631,0.4659,0.4664,0.4641,0.4687,0.4694,0.4731,0.4746,0.4723,0.4726,0.4828,0.483,0.4831,0.4835,0,0,0,0,0,0,0.4495,0.4507,0.4522,0.4555,0.4567,0.4623,0.4614,0.4619,0.4637,0.4637,0.4669,0.4674,0.4687,0.4726,0.4734,0.475,0.4728,0.4827,0.4829,0.483,0.4833,0.4836,0.4838,0,0,0,0,0,0.4491,0.452,0.4523,0.4532,0.4587,0.4624,0.4631,0.4645,0.4638,0.4653,0.4671,0.4673,0.4743,0.473,0.4739,0.4756,0.4826,0.4828,0.483,0.4832,0.4835,0.4838,0,0,0,0,0,0,0.4488,0.4525,0.4528,0.4569,0.4593,0.4625,0.4644,0.4649,0.4675,0.4674,0.469,0.4697,0.4733,0.4748,0.4733,0.4793,0.4784,0.4788,0.4782,0.4786,0.4788,0.4783,0.4731,0,0,0,0,0,0.4492,0.452,0.4551,0.4584,0.4596,0.4618,0.4635,0.4644,0.467,0.468,0.47,0.4724,0.4752,0.4769,0.4796,0.4835,0.4842,0.4851,0.4854,0.4856,0.4859,0.488,0.4884,0.4839,0.4839,0.4838,0,0,0.4501,0.4525,0.4541,0.4584,0.4604,0.4632,0.4627,0.4656,0.4677,0.4684,0.472,0.4736,0.4764,0.4802,0.4819,0.4815,0.4873,0.4859,0.486,0.4862,0.4883,0.4887,0.4891,0.484,0.484,0.484,0,0,0.4531,0.4552,0.4582,0.4602,0.4632,0.4647,0.4654,0.4685,0.4696,0.4732,0.4738,0.4762,0.4809,0.4829,0.4845,0.4881,0.4884,0.489,0.4903,0.4923,0.4927,0.493,0.4942,0.4947,0.4893,0.4893,0.4893,0,0.4538,0.4581,0.4597,0.4626,0.4644,0.4652,0.4682,0.47,0.4737,0.4749,0.4745,0.4803,0.4823,0.4865,0.4874,0.4887,0.4895,0.4886,0.4925,0.4928,0.4932,0.4944,0.4948,0.4893,0.4893,0.4893,0.4893,0,0.4588,0.4617,0.4638,0.4674,0.4694,0.4723,0.4742,0.4761,0.4768,0.4783,0.4819,0.4842,0.4874,0.4884,0.4892,0.4927,0.4924,0.4922,0.4913,0.4936,0.4948,0.4952,0.4894,0.4894,0.4894,0.4893,0,0,0.4618,0.4662,0.4669,0.4686,0.4719,0.4742,0.4771,0.4802,0.4818,0.4843,0.4867,0.4906,0.4904,0.4923,0.4932,0.4949,0.4976,0.4945,0.4946,0.495,0.5016,0.5017,0.5022,0.4978,0.4979,0.498,0.5013,0,0.4652,0.4706,0.472,0.4764,0.4791,0.4799,0.4824,0.4847,0.4861,0.4885,0.49,0.4928,0.4924,0.4934,0.4952,0.4969,0.4989,0.4967,0.5,0.5001,0.4992,0.5028,0.503,0.5061,0.5018,0.5019,0.5019,0,0.4699,0.4725,0.4773,0.4802,0.4814,0.4837,0.4866,0.4889,0.4915,0.4924,0.4944,0.4951,0.4981,0.497,0.501,0.4995,0.5009,0.5019,0.502,0.5024,0.5011,0.5032,0.5071,0.5075,0.5027,0.5026,0.5026,0,0.4716,0.4763,0.4798,0.4811,0.4847,0.4862,0.4877,0.4902,0.492,0.4945,0.4956,0.4984,0.5,0.5021,0.5035,0.5026,0.5074,0.5064,0.5081,0.5081,0.5091,0.509,0.5132,0.5101,0.5101,0.51,0.51,0,0.4752,0.4781,0.4806,0.4827,0.4859,0.4874,0.4905,0.492,0.4942,0.4966,0.4974,0.4995,0.5013,0.5037,0.5048,0.5079,0.5086,0.5093,0.5096,0.5093,0.5092,0.5102,0.51,0.5102,0.5101,0.5101,0.5101,0,0.4776,0.4794,0.4832,0.4862,0.4871,0.4893,0.4918,0.4938,0.4952,0.4982,0.499,0.5012,0.504,0.5056,0.5092,0.5099,0.5134,0.5136,0.5125,0.5127,0.5142,0.514,0.5192,0.5199,0.5163,0.5164,0.5164,0,0.4798,0.482,0.4853,0.4869,0.4885,0.4912,0.493,0.4945,0.4964,0.4994,0.501,0.5039,0.5063,0.5108,0.5126,0.5153,0.5155,0.5171,0.5159,0.5155,0.5155,0.5153,0.5155,0.5173,0.5174,0.5174,0.5174,0,0.4835,0.4842,0.4868,0.4897,0.4918,0.4942,0.4965,0.4978,0.4997,0.5017,0.5046,0.5065,0.5101,0.5129,0.5157,0.5172,0.5176,0.5178,0.5183,0.518,0.5173,0.5176,0.5131,0.5177,0.5176,0.5176,0.5176,0.5176,0.4858,0.4878,0.4904,0.4932,0.4951,0.4972,0.4993,0.5009,0.5034,0.5065,0.5073,0.5103,0.5127,0.5166,0.5181,0.5205,0.5202,0.5209,0.5211,0.5213,0.5213,0.5169,0.521,0.521,0.521,0.521,0.521,0,0.4894,0.4911,0.4937,0.4969,0.4991,0.4994,0.5019,0.5037,0.5064,0.5087,0.511,0.5143,0.517,0.5191,0.5218,0.5233,0.5235,0.524,0.5238,0.5242,0.5214,0.5207,0.5237,0.5237,0.5237,0.5237,0.5237,0.5237,0.4916,0.4949,0.496,0.5002,0.5019,0.5049,0.5064,0.5083,0.5101,0.5138,0.516,0.5174,0.5195,0.5224,0.5249,0.5254,0.5263,0.5267,0.5272,0.5247,0.5244,0.5241,0.5234,0.5269,0.5269,0.5298,0.5298,0.5298]}]]